Location: Cossonay
(46.5833°N, 6.4167°E)
Time: 11:13:18
(UTC+00:00)

STARLINK-1257 - Pass Details

Date: 07 October 2020
Orbit: 549 x 550 km, 53.0° (Epoch: 21 October)

Event Time Altitude Azimuth Distance (km) Brightness Sun altitude
Exits shadow 04:29:54 21° 276° (W) 1,279 4.9 -13.1°
Maximum altitude 04:32:24 46° 341° (NNW) 740 4.1 -12.7°
Drops below altitude 10° 04:36:25 10° 56° (ENE) 1,826 7.3 -12.0°
Sets 04:38:43 0° 63° (ENE) 2,721 8.5 -11.6°
